FW1898 Weather Reports


time (UTC)temp
F
wind
direction
speed
knots
gust
knots
rain 1hr
in
rain 24hr
in
rain mn
in
humidity
%
barometer
mb
20260506172326 55 312 3.5 7.0 0.00 0.64 0.19 100 1117.6
20260506171325 55 294 7.0 10.4 0.00 0.64 0.19 100 1117.6
20260506170423 55 299 4.3 7.0 0.00 0.64 0.19 100 1117.5
20260506165425 55 307 4.3 6.1 0.00 0.64 0.19 100 1117.6
20260506164425 55 288 6.1 7.8 0.00 0.64 0.19 100 1118.0
20260506163425 54 297 5.2 8.7 0.00 0.64 0.19 100 1118.1
20260506162426 54 312 4.3 7.0 0.00 0.64 0.19 100 1117.9
20260506161427 53 288 5.2 9.6 0.00 0.64 0.19 100 1117.6
20260506160508 53 295 5.2 7.8 0.00 0.64 0.19 100 1117.6
20260506155526 53 286 5.2 10.4 0.00 0.64 0.19 100 1117.4
20260506154524 54 286 4.3 6.1 0.00 0.64 0.19 100 1117.4
20260506152625 53 305 3.5 6.1 0.00 0.64 0.19 100 1117.4
20260506150624 51 299 4.3 7.0 0.00 0.64 0.19 100 1117.1
20260506145626 50 296 5.2 7.8 0.00 0.64 0.19 100 1116.7
20260506145524 50 295 5.2 9.6 0.00 0.64 0.19 100 1116.7
20260506144525 49 298 3.5 5.2 0.00 0.64 0.19 100 1116.6
20260506143525 49 306 6.1 10.4 0.00 0.64 0.19 100 1116.3
20260506142525 49 295 4.3 9.6 0.00 0.64 0.19 100 1116.2
20260506141524 48 299 4.3 7.0 0.00 0.64 0.19 100 1116.3
20260506140528 48 291 2.6 7.0 0.00 0.64 0.19 100 1116.3
20260506135623 47 286 4.3 7.0 0.00 0.64 0.19 100 1116.1
20260506134624 47 294 5.2 7.8 0.00 0.64 0.19 100 1116.1
20260506132629 46 294 3.5 6.1 0.00 0.64 0.19 100 1115.9
20260506131724 46 289 2.6 5.2 0.00 0.64 0.19 100 1115.8
20260506130725 45 296 3.5 4.3 0.00 0.64 0.19 100 1115.7
20260506124824 45 304 1.7 3.5 0.00 0.64 0.19 100 1115.1
20260506123824 45 292 3.5 7.0 0.00 0.64 0.19 100 1115.2
20260506122824 45 312 3.5 5.2 0.00 0.64 0.19 100 1114.8
20260506121824 44 295 3.5 7.0 0.00 0.64 0.19 100 1114.6
20260506120825 44 304 4.3 7.8 0.00 0.64 0.19 100 1114.5
20260506115826 44 300 2.6 4.3 0.00 0.64 0.19 100 1114.3
20260506112923 43 292 2.6 3.5 0.00 0.64 0.19 100 1114.3
20260506111925 43 292 0.9 1.7 0.00 0.65 0.19 100 1114.3
20260506110923 43 292 1.7 2.6 0.00 0.65 0.19 100 1114.1
20260506105926 43 337 1.7 2.6 0.00 0.65 0.19 100 1113.4
20260506105023 43 330 0.9 1.7 0.00 0.65 0.19 100 1113.3
20260506104026 43 327 0.9 2.6 0.00 0.65 0.19 100 1113.7
20260506102224 43 301 3.5 7.0 0.00 0.66 0.19 100 1113.6
20260506101224 43 292 3.5 6.1 0.01 0.66 0.19 100 1112.9
20260506100207 43 300 3.5 6.1 0.01 0.66 0.19 100 1113.0
20260506095225 43 315 0.9 1.7 0.01 0.66 0.19 100 1112.6
20260506094225 44 22 1.7 3.5 0.01 0.66 0.19 100 1111.8
20260506093210 44 1 2.6 3.5 0.01 0.66 0.19 100 1111.9
20260506092224 44 315 0.9 2.6 0.01 0.66 0.19 100 1112.5
20260506090226 44 315 0.9 2.6 0.00 0.65 0.18 100 1113.4
20260506085236 44 315 1.7 2.6 0.00 0.65 0.18 100 1113.3
20260506085219 44 315 2.6 2.6 0.00 0.65 0.18 100 1113.3
20260506062322 44 345 3.5 5.2 0.05 0.62 0.15 100 1112.9
20260506061323 45 337 5.2 8.7 0.05 0.60 0.13 100 1112.8
20260506050507 47 337 2.6 3.5 0.06 0.54 0.07 100 1113.4
20260506044523 47 15 4.3 7.0 0.06 0.52 0.05 100 1113.1
20260506042622 47 360 0.9 2.6 0.05 0.49 0.01 100 1113.0
20260506041721 47 352 0.9 3.5 0.05 0.48 0.01 100 1113.1
20260506040724 47 330 1.7 3.5 0.05 0.48 0.01 100 1113.2
20260506034740 47 337 1.7 3.5 0.06 0.46 0.46 100 1113.5
20260506033740 47 331 0.0 0.9 0.07 0.45 0.45 100 1113.7
20260506032739 47 299 3.5 5.2 0.07 0.44 0.44 100 1113.8
20260506031737 47 340 0.9 2.6 0.08 0.43 0.43 100 1114.1
20260506025739 48 315 1.7 2.6 0.12 0.42 0.41 100 1114.3
20260506024838 48 308 1.7 7.0 0.12 0.41 0.40 100 1114.3
20260506023937 48 285 2.6 3.5 0.12 0.39 0.39 100 1114.6
20260506023021 49 336 2.6 4.3 0.11 0.37 0.37 100 1114.5
20260506022038 49 318 0.9 2.6 0.12 0.36 0.35 100 1114.3
20260506021038 49 305 0.0 2.6 0.10 0.33 0.33 100 1114.1
20260506020040 49 311 2.6 4.3 0.08 0.31 0.31 100 1114.0
20260506015137 49 337 1.7 3.5 0.06 0.28 0.28 100 1113.8
20260506014139 50 208 2.6 4.3 0.04 0.27 0.27 100 1113.8
20260506013238 50 272 0.9 3.5 0.03 0.26 0.26 100 1113.6
20260506012238 50 344 2.6 4.3 0.02 0.25 0.24 100 1113.2
20260506011242 50 206 0.9 0.9 0.00 0.23 0.23 100 1113.3
20260506011222 50 337 0.0 0.9 0.00 0.23 0.23 100 1113.3
20260505224241 55 292 1.7 3.5 0.15 0.22 0.22 100 1113.2
20260505222241 55 289 3.5 5.2 0.13 0.19 0.19 100 1113.4
20260505221241 56 260 0.9 2.6 0.11 0.17 0.16 100 1113.4
20260505220240 56 282 3.5 4.3 0.07 0.13 0.13 100 1113.5
20260505215326 57 292 2.6 6.1 0.03 0.09 0.09 100 1113.2
20260505213440 57 292 1.7 2.6 0.00 0.06 0.06 100 1112.7
20260505212442 57 281 0.9 2.6 0.00 0.07 0.06 100 1112.7
20260505211441 57 291 0.9 2.6 0.00 0.07 0.06 100 1112.8
20260505210442 57 303 3.5 4.3 0.02 0.07 0.06 100 1112.8
20260505205442 57 292 2.6 3.5 0.02 0.07 0.06 100 1112.9
20260505204523 57 270 2.6 6.1 0.03 0.07 0.06 100 1113.0
20260505203541 57 282 1.7 2.6 0.04 0.07 0.06 100 1113.2
20260505202640 57 270 1.7 2.6 0.04 0.07 0.06 100 1113.1
20260505201641 57 247 0.9 1.7 0.04 0.07 0.06 100 1113.5
20260505200725 57 270 1.7 2.6 0.02 0.05 0.04 100 1113.4
20260505195739 57 273 2.6 3.5 0.02 0.05 0.04 100 1113.4
20260505194740 58 274 2.6 3.5 0.02 0.05 0.04 100 1113.5
20260505193740 58 271 4.3 7.8 0.00 0.03 0.02 100 1113.8
20260505192838 59 279 4.3 7.0 0.00 0.03 0.02 100 1113.6
20260505191840 60 271 5.2 7.0 0.00 0.03 0.02 100 1113.6
20260505185841 60 292 2.6 4.3 0.00 0.03 0.02 100 1113.7
20260505184841 60 270 5.2 6.1 0.00 0.03 0.02 100 1113.6
20260505183939 61 281 4.3 7.0 0.00 0.03 0.02 100 1113.5
20260505182941 62 283 4.3 7.8 0.00 0.03 0.02 100 1113.7
20260505182039 62 287 3.5 6.1 0.00 0.03 0.02 100 1113.6
20260505180040 62 246 2.6 4.3 0.00 0.03 0.02 100 1113.6
20260505175124 62 259 2.6 5.2 0.00 0.03 0.02 100 1113.5
20260505174140 63 265 3.5 5.2 0.00 0.03 0.02 100 1113.6